TIANZHOU-6

Last updated on Sat Jan 20 2024 00:02:06 GMT+0000 (Coordinated Universal Time)

1 56446U 23063A 24019.19390499 .00021674 00000+0 22319-3 0 9998 2 56446 41.4697 279.3888 0010873 162.8101 335.0246 15.64253285 39669
UTC large
Height (km)
Speed (km/s)
/
Latitude / Longitude
Inclination (degrees)
Orbital Period (minutes)
Azimuth
Elevation
Range (km)
Doppler Factor

Next 0 passes for location: London (51.5072 / 0.1276)

Sorry there are no passes over London.